Location: Lucerne Valley
(34.4439°N, 116.9669°E)
Time: 07:48:38
(UTC-07:00)

N. Korean satellite - Pass Details

Date: 15 October 2017
Orbit: 459 x 517 km, 97.2° (Epoch: 18 October)

Event Time Altitude Azimuth Distance (km) Brightness Sun altitude
Rises 03:21:55 0° 170° (S) 2,551 10.2 -9.8°
Reaches altitude 10° 03:24:00 10° 171° (S) 1,664 9.2 -10.2°
Maximum altitude 03:27:34 81° 258° (WSW) 491 6.6 -11.0°
Drops below altitude 10° 03:31:06 10° 347° (NNW) 1,644 9.4 -11.7°
Sets 03:33:09 0° 348° (NNW) 2,517 10.3 -12.1°
